Flag for Germany Weather past 2 weeks in Oranienburg, Brandenburg, Germany

Now
45 °F

Overcast.


Feels Like: 42 °F
Forecast: 38 / 45 °F
Wind: 6 mph from Southwest

Location: Berlin-Tegel

Current Time: Mar 1, 2015 at 8:52:26 PM

Latest Report: Mar 1, 2015 at 8:00 PM


Visibility: 28 mi

Pressure: 29.59 "Hg

Humidity: 81%

Dew point: 39 °F

Location of OranienburgLocation

Historic Weather in Oranienburg — Graph

°F

Oranienburg temperature yesterday

Maximum temperature yesterday: 44 °F (at 2:00 PM)
Minimum temperature yesterday: 35 °F (at 8:00 AM)
Average temperature yesterday: 39 °F

Past Weeks' High & Low Weather Summary

 TemperatureHumidityPressure
High52 °F (Feb 21, 12:00 PM)98% (Feb 18, 4:00 AM)30.73 "Hg (Feb 18, 4:00 AM)
Low27 °F (Feb 20, 5:00 AM)40% (Feb 26, 3:00 PM)29.35 "Hg (Feb 21, 2:00 PM)
Average38 °F78%30.01 "Hg
* Reported Feb 14 8:00 PM — Mar 1 8:00 PM, Oranienburg, Weather by CustomWeather, © 2015

Note: Actual official high and low records may vary slightly from our data, if they occured in-between our weather recording intervals... More about our weather records

Advertising

Oranienburg weather history for previous 24 hours

 ConditionsComfort  
Time TempWeatherWind HumidityBarometerVisibility
8:00 PM
Sun, Mar 1
45 °FOvercast.6 mph81%29.59 "Hg28 mi
7:00 PM46 °FOvercast.6 mph79%29.59 "Hg28 mi
6:00 PM46 °FLight rain. Overcast.7 mph79%29.58 "Hg17 mi
5:00 PM46 °FPartly sunny.6 mph79%29.57 "Hg28 mi
4:00 PM45 °FScattered clouds.7 mph83%29.57 "Hg16 mi
3:00 PM43 °FOvercast.6 mph92%29.59 "Hg8 mi
2:00 PM40 °FLow clouds.6 mph95%29.60 "Hg4 mi
1:00 PM39 °FLight rain. Low clouds.7 mph95%29.62 "Hg4 mi
12:00 PM38 °FLight rain. Overcast.7 mph94%29.64 "Hg4 mi
11:00 AM38 °FLight rain. Overcast.6 mph89%29.65 "Hg7 mi
10:00 AM38 °FLight rain. Overcast.8 mph86%29.67 "Hg7 mi
9:00 AM39 °FLight rain. Overcast.7 mph73%29.69 "Hg12 mi
8:00 AM39 °FOvercast.8 mph71%29.72 "Hg19 mi
7:00 AM37 °FOvercast.7 mph75%29.75 "Hg22 mi
6:00 AM36 °FOvercast.6 mph76%29.78 "Hg22 mi
5:00 AM35 °FOvercast.6 mph75%29.81 "Hg22 mi
4:00 AM35 °FOvercast.6 mph75%29.83 "Hg22 mi
3:00 AM35 °FPassing clouds.6 mph74%29.87 "Hg22 mi
2:00 AM36 °FPassing clouds.5 mph72%29.91 "Hg22 mi
1:00 AM36 °FClear.5 mph74%29.93 "Hg22 mi
12:00 AM36 °FClear.3 mph74%29.96 "Hg22 mi
11:00 PM
Sat, Feb 28
36 °FClear.3 mph70%29.99 "Hg22 mi
10:00 PM38 °FClear.5 mph67%30.01 "Hg25 mi
9:00 PM39 °FClear.3 mph65%30.03 "Hg25 mi
8:00 PM39 °FChilly.3 mph63%30.04 "HgN/A
Weather by CustomWeather, © 2015

See weather overviewHow to use our weather pages